Date String (YYYY-MM-DD hh:mm:ss) UTC,Instrument flags,Ambient pressure (hPa),Sample flow (lpm),Bypass flow (lpm),Sample temperature (°C),Ambient temperature (°C),ASC tube jacket temperature (°C),LED temperature (°C),Box temperature (°C),Sample RH (%),Span deviation,Mass concentration (μg/m³),Mass concentration (μg/m³),Mass concentration (μg/m³)
DateTimeUTC,F1_M11,P_M11,Q1_M11,Q2_M11,T1_M11,T2_M11,T3_M11,T4_M11,T5_M11,U1_M11,ZSPAN_M11,X0_M11,X2_M11,X1_M11
2022-12-19 13:00:00,,0821.0,5.01,0.00,21.4,20.8,00.0,30.2,23.1,04.9,0000.0,0002.55,0000.71,0000.43
2022-12-19 13:01:00,,0821.1,5.00,0.00,21.6,21.9,00.0,30.2,23.5,04.8,0000.0,0002.60,0000.73,0000.43
2022-12-19 13:02:00,,0821.2,5.00,0.00,21.6,21.9,00.0,30.3,23.6,04.8,0000.0,0002.78,0000.79,0000.43
2022-12-19 13:03:00,,0821.1,4.99,0.00,21.6,21.4,00.0,30.3,23.5,04.9,0000.0,0003.43,0000.80,0000.43
2022-12-19 13:04:00,,0821.0,5.02,0.00,21.6,21.0,00.0,30.4,23.3,04.9,0000.0,0003.33,0000.78,0000.43
2022-12-19 13:05:00,,0821.0,5.03,0.00,21.6,20.6,00.0,30.4,23.2,04.9,0000.0,0002.79,0000.76,0000.43
2022-12-19 13:06:00,,0820.9,4.97,0.00,21.6,20.4,00.0,30.4,23.2,04.9,0000.0,0003.23,0000.76,0000.44
2022-12-19 13:07:00,,0821.0,5.00,0.00,21.5,20.3,00.0,30.4,23.1,04.9,0000.0,0004.18,0000.77,0000.43
2022-12-19 13:08:00,,0821.0,5.02,0.00,21.5,20.1,00.0,30.3,23.0,04.8,0000.0,0005.91,0000.76,0000.44
2022-12-19 13:09:00,,0821.0,4.99,0.00,21.5,20.2,00.0,30.3,23.0,04.9,0000.0,0005.79,0000.73,0000.44
2022-12-19 13:10:00,,0821.0,4.98,0.00,21.6,21.3,00.0,30.3,23.3,04.9,0000.0,0005.71,0000.71,0000.44
2022-12-19 13:11:00,,0820.9,5.03,0.00,21.7,22.2,00.0,30.3,23.7,04.8,0000.0,0005.80,0000.77,0000.44
2022-12-19 13:12:00,,0821.0,4.96,0.00,21.8,21.8,00.0,30.4,23.6,04.9,0000.0,0005.92,0000.82,0000.45
2022-12-19 13:13:00,,0821.1,5.04,0.00,21.7,21.3,00.0,30.4,23.5,04.8,0000.0,0005.97,0000.82,0000.45
2022-12-19 13:14:00,,0821.1,4.95,0.00,21.7,20.9,00.0,30.5,23.4,04.8,0000.0,0005.16,0000.80,0000.45
2022-12-19 13:15:00,,0821.1,5.01,0.00,21.7,20.6,00.0,30.5,23.2,04.9,0000.0,0004.83,0000.80,0000.46
2022-12-19 13:16:00,,0821.1,5.03,0.00,21.7,20.3,00.0,30.5,23.2,04.9,0000.0,0004.85,0000.81,0000.46
2022-12-19 13:17:00,,0821.2,5.02,0.00,21.6,20.2,00.0,30.4,23.1,04.9,0000.0,0004.42,0000.82,0000.47
2022-12-19 13:18:00,,0821.2,4.95,0.00,21.6,20.8,00.0,30.4,23.3,05.0,0000.0,0003.85,0000.82,0000.47
2022-12-19 13:19:00,,0821.2,5.03,0.00,21.7,21.9,00.0,30.4,23.6,04.9,0000.0,0001.93,0000.81,0000.47
2022-12-19 13:20:00,,0821.3,4.97,0.00,21.8,22.2,00.0,30.5,23.8,04.8,0000.0,0001.55,0000.81,0000.47
2022-12-19 13:21:00,,0821.3,5.04,0.00,21.8,21.6,00.0,30.5,23.6,04.9,0000.0,0001.59,0000.83,0000.47
2022-12-19 13:22:00,,0821.3,4.99,0.00,21.8,21.1,00.0,30.6,23.5,04.9,0000.0,0001.46,0000.78,0000.48
2022-12-19 13:23:00,,0821.3,4.98,0.00,21.7,20.7,00.0,30.6,23.4,04.9,0000.0,0001.35,0000.75,0000.49
2022-12-19 13:24:00,,0821.3,5.02,0.00,21.7,20.4,00.0,30.6,23.3,04.9,0000.0,0001.22,0000.71,0000.49
2022-12-19 13:25:00,,0821.4,5.03,0.00,21.7,20.3,00.0,30.6,23.2,04.9,0000.0,0001.35,0000.70,0000.48
2022-12-19 13:26:00,,0821.4,4.96,0.00,21.6,20.1,00.0,30.5,23.1,05.0,0000.0,0001.44,0000.71,0000.49
2022-12-19 13:27:00,,0821.4,5.01,0.00,21.6,20.7,00.0,30.5,23.3,05.0,0000.0,0001.43,0000.69,0000.49
2022-12-19 13:28:00,,0821.4,5.02,0.00,21.7,21.7,00.0,30.5,23.6,05.1,0000.0,0001.42,0000.69,0000.48
2022-12-19 13:29:00,,0821.4,4.96,0.00,21.9,22.0,00.0,30.5,23.7,05.0,0000.0,0001.41,0000.69,0000.48
2022-12-19 13:30:00,,0821.3,5.02,0.00,21.8,21.3,00.0,30.6,23.6,05.0,0000.0,0001.34,0000.68,0000.49
2022-12-19 13:31:00,,0821.2,4.95,0.00,21.8,20.8,00.0,30.6,23.4,05.0,0000.0,0001.31,0000.68,0000.49
2022-12-19 13:32:00,,0821.3,5.03,0.00,21.7,20.5,00.0,30.6,23.3,05.0,0000.0,0001.31,0000.68,0000.50
2022-12-19 13:33:00,,0821.4,5.02,0.00,21.7,20.4,00.0,30.6,23.2,05.0,0000.0,0001.41,0000.68,0000.49
2022-12-19 13:34:00,,0821.4,4.99,0.00,21.7,20.1,00.0,30.6,23.1,05.0,0000.0,0001.37,0000.67,0000.49
2022-12-19 13:35:00,,0821.3,4.97,0.00,21.6,20.1,00.0,30.5,23.1,05.1,0000.0,0001.39,0000.68,0000.49
2022-12-19 13:36:00,,0821.4,5.02,0.00,21.7,21.1,00.0,30.5,23.3,05.0,0000.0,0001.25,0000.67,0000.50
2022-12-19 13:37:00,,0821.3,5.00,0.00,21.8,22.0,00.0,30.5,23.6,05.0,0000.0,0001.19,0000.68,0000.50
2022-12-19 13:38:00,,0821.4,5.00,0.00,21.8,21.7,00.0,30.6,23.6,04.9,0000.0,0001.37,0000.72,0000.50
2022-12-19 13:39:00,,0821.3,5.03,0.00,21.8,21.1,00.0,30.6,23.5,04.9,0000.0,0001.37,0000.72,0000.50
2022-12-19 13:40:00,,0821.4,4.96,0.00,21.7,20.6,00.0,30.6,23.3,05.0,0000.0,0001.90,0000.70,0000.50
2022-12-19 13:41:00,,0821.4,5.03,0.00,21.7,20.4,00.0,30.6,23.2,05.0,0000.0,0002.48,0000.69,0000.49
2022-12-19 13:42:00,,0821.4,5.00,0.00,21.6,20.2,00.0,30.6,23.1,05.0,0000.0,0002.46,0000.67,0000.48
2022-12-19 13:43:00,,0821.3,4.96,0.00,21.6,19.9,00.0,30.6,23.0,05.0,0000.0,0002.40,0000.65,0000.47
2022-12-19 13:44:00,,0821.4,5.02,0.00,21.5,20.3,00.0,30.5,23.1,05.0,0000.0,0002.32,0000.65,0000.47
2022-12-19 13:45:00,,0821.4,5.01,0.00,21.7,21.6,00.0,30.5,23.4,05.0,0000.0,0002.30,0000.64,0000.46
2022-12-19 13:46:00,,0821.4,4.98,0.00,21.8,22.0,00.0,30.5,23.7,05.1,0000.0,0002.39,0000.66,0000.46
2022-12-19 13:47:00,,0821.4,4.98,0.00,21.8,21.5,00.0,30.5,23.6,05.0,0000.0,0002.50,0000.66,0000.46
2022-12-19 13:48:00,,0821.4,5.00,0.00,21.7,20.8,00.0,30.6,23.3,05.0,0000.0,0002.99,0000.67,0000.46
2022-12-19 13:49:00,,0821.5,5.04,0.00,21.6,20.2,00.0,30.6,23.1,05.0,0000.0,0003.20,0000.65,0000.46
2022-12-19 13:50:00,,0821.6,4.99,0.00,21.5,19.8,00.0,30.5,23.0,05.0,0000.0,0003.16,0000.65,0000.46
2022-12-19 13:51:00,,0821.5,4.96,0.00,21.5,19.6,00.0,30.5,22.9,05.1,0000.0,0002.61,0000.67,0000.47
2022-12-19 13:52:00,,0821.6,5.01,0.00,21.4,19.4,00.0,30.5,22.8,05.1,0000.0,0002.07,0000.69,0000.47
2022-12-19 13:53:00,,0821.6,5.03,0.00,21.4,20.0,00.0,30.4,23.0,05.1,0000.0,0002.06,0000.69,0000.48
2022-12-19 13:54:00,,0821.5,4.96,0.00,21.5,21.4,00.0,30.4,23.3,05.1,0000.0,0002.15,0000.72,0000.49
2022-12-19 13:55:00,,0821.5,5.03,0.00,21.7,21.9,00.0,30.4,23.5,05.0,0000.0,0003.29,0000.73,0000.49
2022-12-19 13:56:00,,0821.5,4.96,0.00,21.7,21.5,00.0,30.4,23.5,05.0,0000.0,0003.28,0000.72,0000.49
2022-12-19 13:57:00,,0821.6,5.05,0.00,21.7,21.0,00.0,30.5,23.4,05.1,0000.0,0003.26,0000.74,0000.49
2022-12-19 13:58:00,,0821.6,4.97,0.00,21.6,20.6,00.0,30.5,23.3,05.1,0000.0,0003.24,0000.75,0000.49
2022-12-19 13:59:00,,0821.6,4.99,0.00,21.6,20.4,00.0,30.5,23.2,05.1,0000.0,0002.64,0000.74,0000.49
